Left ArrowRight Arrow

39.71368, -82.59933

Hourly Observations for June 18, 2024

Temp ( °F °C ) Dew Point ( °F °C ) Humidity (%) Winds ( mph kmh ) Pressure ( in mb ) Visibility ( mi km ) Precip ( " mm )
12:53 am 00:53 Clear 72 22.2 71 21.7 97 97 SSE 3 6 30.09 1019 10 16 0.00 0.00
1:53 am 01:53 Clear 73 22.8 71 21.7 94 94 SSE 5 7 30.11 1020 10 16 0.00 0.00
2:53 am 02:53 Clear 71 21.7 71 21.7 100 100 SE 5 7 30.11 1020 9 14 0.00 0.00
3:53 am 03:53 Clear with Mist and Fog 70 21.1 70 21.1 100 100 Calm 30.10 1019 6 10 0.00 0.00
4:53 am 04:53 Clear 71 21.7 71 21.7 100 100 Calm 30.11 1020 7 11 0.00 0.00
5:53 am 05:53 Mostly Clear 70 21.1 70 21.1 100 100 Calm 30.12 1020 7 11 0.00 0.00
6:53 am 06:53 Mostly Sunny 72 22.2 72 22.2 100 100 ESE 5 7 30.13 1020 8 13 0.00 0.00
7:53 am 07:53 Partly Cloudy 74 23.3 73 22.8 97 97 SE 3 6 30.15 1021 8 13 0.00 0.00
8:53 am 08:53 Mostly Cloudy 78 25.6 73 22.8 85 85 Calm 30.16 1021 10 16 0.00 0.00
9:53 am 09:53 Mostly Sunny 82 27.8 73 22.8 74 74 WSW 3 6 30.17 1022 10 16 0.00 0.00
10:53 am 10:53 Partly Cloudy 83 28.3 73 22.8 72 72 WSW 3 6 30.17 1022 10 16 0.00 0.00
11:53 am 11:53 Sunny 87 30.6 73 22.8 63 63 SW 5 7 30.16 1021 10 16 0.00 0.00
12:53 pm 12:53 Sunny 87 30.6 71 21.7 59 59 W 6 9 30.17 1022 10 16 0.00 0.00
1:53 pm 13:53 Sunny 87 30.6 72 22.2 61 61 WSW 5 7 30.16 1021 10 16 0.00 0.00
2:53 pm 14:53 Partly Cloudy 88 31.1 74 23.3 63 63 W 7 11 30.15 1021 10 16 0.00 0.00
3:53 pm 15:53 Sunny 90 32.2 72 22.2 56 56 SW 6 9 30.14 1021 10 16 0.00 0.00
4:53 pm 16:53 Sunny 88 31.1 73 22.8 61 61 S 5 7 30.13 1020 10 16 0.00 0.00
5:53 pm 17:53 Sunny 86 30 75 23.9 70 70 SSE 6 9 30.13 1020 10 16 0.00 0.00
6:53 pm 18:53 Sunny 86 30 75 23.9 70 70 SSE 6 9 30.12 1020 10 16 0.00 0.00
7:53 pm 19:53 Sunny 85 29.4 74 23.3 70 70 SSE 6 9 30.12 1020 10 16 0.00 0.00
8:53 pm 20:53 Sunny 83 28.3 75 23.9 77 77 S 3 6 30.14 1021 10 16 0.00 0.00
9:53 pm 21:53 Clear 77 25 75 23.9 94 94 Calm 30.15 1021 10 16 0.00 0.00
10:53 pm 22:53 Clear 75 23.9 74 23.3 96 96 Calm 30.15 1021 9 14 0.00 0.00
11:53 pm 23:53 Clear with Mist and Fog 74 23.3 74 23.3 100 100 Calm 30.16 1021 6 10 0.00 0.00

Powered by Vaisala Xweather